Hourly Weather Roundup
Issued by NWS Central Illinois

Home | Current Version | Previous Version | Text Only | Print | Product List | Glossary On
Versions: 1 2 3 4 5 6 7 8 9 10 11 12 13 14 15 16 17 18 19 20 21 22 23 24 25 26 27 28 29 30 31 32 33 34 35 36 37 38 39 40 41 42 43 44 45 46 47 48 49 50
000
NZUS43 KILX 191910
HWRILX

AREA WEATHER ROUNDUP
NATIONAL WEATHER SERVICE, LINCOLN IL
100 PM CST THU JAN 19 2017


CITY           SKY/WX    TMP DP  RH WIND       PRES   REMARKS
BLOOMINGTON    LGT RAIN  41  39  93 SE8       29.87F FOG
CHAMPAIGN      CLOUDY    43  39  86 SE10      29.88F
DANVILLE       LGT RAIN  42  38  85 E6        29.87F
DECATUR        LGT RAIN  43  42  97 SE7       29.86F
EFFINGHAM      LGT RAIN  43  43 100 E9        29.87F
FLORA          LGT RAIN  46  44  93 E6        29.86F
GALESBURG      DRIZZLE   40  38  92 SE6       29.84F
JACKSONVILLE   CLOUDY    45  42  92 E6        29.82F
LACON          CLOUDY    40  37  91 SE5       29.86F FOG
LAWRENCEVILLE  CLOUDY    46  43  89 E6        29.88F
LITCHFIELD     LGT RAIN  43  42  97 SE9       29.81F
$$


CITY           SKY/WX    TMP DP  RH WIND       PRES   REMARKS
LINCOLN        LGT RAIN  43  42  97 E10       29.84F
MACOMB         DRIZZLE   40  40  98 SE7       29.85F
MATTOON        LGT RAIN  43  40  89 E6        29.84F
MT CARMEL AP   CLOUDY    46  42  87 E7        29.86F
OLNEY-NOBLE AP LGT RAIN  45  45 100 E7        29.86F
PARIS          DRIZZLE   43  40  88 E6        29.89F
PEORIA         CLOUDY    42  38  85 SE7       29.87F FOG
PONTIAC        CLOUDY    41  41 100 SE5       29.89F FOG
RANTOUL        LGT RAIN  44  41  89 SE9       29.89F
SPRINGFIELD    CLOUDY    44  41  89 SE8       29.84F FOG
TAYLORVILLE    LGT RAIN  43  42  97 E13       29.82F
$$

...REGIONAL REPORTS...


CITY           SKY/WX    TMP DP  RH WIND       PRES   REMARKS
CHICAGO O`HARE CLOUDY    42  37  82 S6        29.91F HAZE
KANKAKEE       CLOUDY    42  39  87 SE9       29.92F
MOLINE         CLOUDY    41  36  82 SE9       29.85F HAZE
MOUNT STERLING DRIZZLE   43  42  97 E8        29.80F
MOUNT VERNON   LGT RAIN  45  44  97 E10       29.81F
PITTSFIELD     LGT RAIN  45  44  98 SE9       29.81F
QUINCY         CLOUDY    45  44  97 SE9       29.78F FOG
ROCKFORD       CLOUDY    38  36  92 SE7       29.91F FOG     WCI  33
$$


CITY           SKY/WX    TMP DP  RH WIND       PRES   REMARKS
BURLINGTON     FOG       39  39 100 E8        29.81F VSB 1   WCI  33
CEDAR RAPIDS   RAIN      36  36 100 E5        29.81F FOG     WCI  32
DES MOINES     DRZL/FOG  39  37  92 SE6       29.76F VSB 1   WCI  35
KIRKSVILLE     FOG       43  43 100 SE6       29.75F VSB 1/4
OTTUMWA        FOG       39  37  92 E8        29.78F VSB 1   WCI  33
ST LOUIS       LGT RAIN  47  44  90 E6        29.80F FOG
$$


CITY           SKY/WX    TMP DP  RH WIND       PRES   REMARKS
TERRE HAUTE    LGT RAIN  46  39  76 NE8       29.86F
EVANSVILLE     LGT RAIN  48  44  86 E8        29.85F
INDIANAPOLIS   CLOUDY    45  38  76 SE9       29.92F
LAFAYETTE      CLOUDY    43  38  82 E10       29.92F
MADISON        CLOUDY    34  33  96 S6        29.91S FOG     WCI  29
MILWAUKEE      CLOUDY    36  33  89 S5        29.92F FOG     WCI  32
$$






USA.gov is the U.S. government's official web portal to all federal, state and local government web resources and services.